Terug naar catalogus

STARLINK-1376

ActiefCommunicatieVLEO
NORAD 45570·PAYLOAD·🇺🇸 United States

Gelanceerd Apr 22, 2020 vanaf Cape Canaveral Space Force Station

Loading…

Volgende Passages (komende 24 uur)

TLE

VersSource: CelesTrak SupGP

Epoch: Sep 14, 2026, 20:19 UTC

1 45570C 20025AR  26257.84701389  .00081064  00000+0  15800-2 0  2573
2 45570  53.1512 267.6692 0004598  42.3328 234.3048 15.46887651    12

Volg STARLINK-1376 in realtime met AllMySat

Download on the App Store